When you browse on this site, cookies collect data to enhance your experience and personalize the content and advertising you see.
Visit our Privacy Policy to learn more. By continuing to use the site, you agree to this use of cookies and data.
  • In Germany
  • List of Countries
  • For 7 days
  • Water Temperature
  • Weather Map
  • Weather Widgets
  • user-avatar
    Login

    Hourly Weather Uige

    Today, 27 May, Wednesday

    Time Temperature Precipitation Wind Pressure Humidity
    00:00 +20°C° 0 mm 0 mps 691 mmHg 91%
    01:00 +19°C° 0 mm 0 mps 691 mmHg 90%
    02:00 +19°C° 0 mm 0 mps 691 mmHg 90%
    03:00 +21°C° 0 mm 1 mps 691 mmHg 91%
    04:00 +20°C° 0 mm 1 mps 691 mmHg 91%
    05:00 +21°C° 0 mm 1 mps 691 mmHg 89%
    06:00 +21°C° 0 mm 1 mps 691 mmHg 88%
    07:00 +22°C° 0 mm 1 mps 692 mmHg 86%
    08:00 +25°C° 0 mm 1 mps 692 mmHg 74%
    09:00 +28°C° 0 mm 1 mps 693 mmHg 62%
    10:00 +31°C° 0 mm 1 mps 693 mmHg 51%
    11:00 +32°C° 0 mm 1 mps 693 mmHg 48%
    12:00 +33°C° 0 mm 1 mps 692 mmHg 45%
    13:00 +34°C° 0 mm 1 mps 692 mmHg 42%
    14:00 +33°C° 0 mm 1 mps 691 mmHg 46%
    15:00 +32°C° 0 mm 1 mps 690 mmHg 50%
    16:00 +31°C° 0 mm 1 mps 690 mmHg 55%
    17:00 +29°C° 0.1 mm 1 mps 690 mmHg 63%
    18:00 +28°C° 0.1 mm 1 mps 690 mmHg 71%
    19:00 +26°C° 0.1 mm 1 mps 691 mmHg 79%
    20:00 +25°C° 0.3 mm 1 mps 691 mmHg 83%
    21:00 +24°C° 0.3 mm 1 mps 692 mmHg 88%
    22:00 +23°C° 0.3 mm 1 mps 692 mmHg 92%
    23:00 +23°C° 0.1 mm 1 mps 692 mmHg 94%

    Tomorrow, 28 May, Thursday

    Time Temperature Precipitation Wind Pressure Humidity
    00:00 +20°C° 0.1 mm 0 mps 692 mmHg 95%
    01:00 +20°C° 0.1 mm 0 mps 691 mmHg 97%
    02:00 +19°C° 0 mm 0 mps 691 mmHg 97%
    03:00 +21°C° 0 mm 1 mps 691 mmHg 97%
    04:00 +21°C° 0 mm 1 mps 690 mmHg 98%
    05:00 +21°C° 0 mm 1 mps 691 mmHg 96%
    06:00 +22°C° 0 mm 1 mps 691 mmHg 94%
    07:00 +22°C° 0 mm 1 mps 692 mmHg 92%
    08:00 +25°C° 0 mm 1 mps 692 mmHg 80%
    09:00 +28°C° 0 mm 1 mps 693 mmHg 68%
    10:00 +31°C° 0 mm 1 mps 693 mmHg 56%
    11:00 +32°C° 0.1 mm 1 mps 693 mmHg 52%
    12:00 +33°C° 0.1 mm 1 mps 692 mmHg 48%
    13:00 +34°C° 0.1 mm 1 mps 692 mmHg 43%
    14:00 +32°C° 0 mm 1 mps 691 mmHg 49%
    15:00 +31°C° 0 mm 1 mps 690 mmHg 55%
    16:00 +30°C° 0 mm 1 mps 690 mmHg 61%
    17:00 +26°C° 0.7 mm 0 mps 690 mmHg 68%
    18:00 +25°C° 0.7 mm 0 mps 690 mmHg 74%
    19:00 +23°C° 0.7 mm 0 mps 691 mmHg 81%
    20:00 +24°C° 0.2 mm 1 mps 691 mmHg 83%
    21:00 +24°C° 0.2 mm 1 mps 691 mmHg 85%
    22:00 +23°C° 0.2 mm 1 mps 691 mmHg 87%
    23:00 +23°C° 0 mm 1 mps 691 mmHg 87%

    Day after tomorrow, 29 May, Friday

    Time Temperature Precipitation Wind Pressure Humidity
    00:00 +22°C° 0 mm 1 mps 691 mmHg 88%
    01:00 +22°C° 0 mm 1 mps 690 mmHg 88%
    02:00 +21°C° 0 mm 1 mps 690 mmHg 89%
    03:00 +21°C° 0 mm 1 mps 690 mmHg 90%
    04:00 +21°C° 0 mm 1 mps 690 mmHg 92%
    05:00 +21°C° 0 mm 1 mps 690 mmHg 89%
    06:00 +22°C° 0 mm 1 mps 691 mmHg 87%
    07:00 +22°C° 0 mm 1 mps 691 mmHg 85%
    08:00 +25°C° 0 mm 1 mps 692 mmHg 71%
    09:00 +29°C° 0 mm 1 mps 693 mmHg 57%
    10:00 +32°C° 0 mm 1 mps 693 mmHg 44%
    11:00 +34°C° 0 mm 2 mps 693 mmHg 40%
    12:00 +35°C° 0 mm 2 mps 692 mmHg 35%
    13:00 +36°C° 0 mm 2 mps 691 mmHg 31%
    14:00 +34°C° 0 mm 1 mps 691 mmHg 34%
    15:00 +34°C° 0 mm 1 mps 690 mmHg 37%
    16:00 +33°C° 0 mm 1 mps 690 mmHg 40%
    17:00 +31°C° 0 mm 1 mps 690 mmHg 50%
    18:00 +28°C° 0 mm 1 mps 690 mmHg 61%
    19:00 +26°C° 0 mm 1 mps 690 mmHg 71%
    20:00 +25°C° 0 mm 1 mps 691 mmHg 77%
    21:00 +22°C° 0 mm 0 mps 691 mmHg 82%
    22:00 +21°C° 0 mm 0 mps 691 mmHg 88%
    23:00 +21°C° 0 mm 0 mps 691 mmHg 90%

    30 May, Saturday

    Time Temperature Precipitation Wind Pressure Humidity
    00:00 +22°C° 0 mm 1 mps 691 mmHg 93%
    01:00 +22°C° 0 mm 1 mps 690 mmHg 95%
    02:00 +21°C° 0 mm 1 mps 690 mmHg 96%
    03:00 +21°C° 0 mm 1 mps 690 mmHg 97%
    04:00 +21°C° 0 mm 1 mps 690 mmHg 97%
    05:00 +19°C° 0 mm 0 mps 690 mmHg 94%
    06:00 +19°C° 0 mm 0 mps 691 mmHg 92%
    07:00 +20°C° 0 mm 0 mps 691 mmHg 89%
    08:00 +23°C° 0 mm 0 mps 692 mmHg 76%
    09:00 +26°C° 0 mm 0 mps 693 mmHg 62%
    10:00 +31°C° 0 mm 1 mps 693 mmHg 49%
    11:00 +32°C° 0 mm 1 mps 693 mmHg 43%
    12:00 +33°C° 0 mm 1 mps 692 mmHg 38%
    13:00 +34°C° 0 mm 1 mps 692 mmHg 32%
    14:00 +33°C° 0 mm 1 mps 691 mmHg 36%
    15:00 +33°C° 0 mm 1 mps 691 mmHg 39%
    16:00 +32°C° 0 mm 1 mps 690 mmHg 42%
    17:00 +30°C° 0 mm 1 mps 690 mmHg 54%
    18:00 +27°C° 0 mm 1 mps 691 mmHg 67%
    19:00 +22°C° 0 mm 0 mps 691 mmHg 80%
    20:00 +22°C° 0 mm 0 mps 691 mmHg 82%
    21:00 +21°C° 0 mm 0 mps 691 mmHg 85%
    22:00 +21°C° 0 mm 0 mps 691 mmHg 87%
    23:00 +22°C° 0 mm 1 mps 691 mmHg 90%

    31 May, Sunday

    Time Temperature Precipitation Wind Pressure Humidity
    00:00 +22°C° 0 mm 1 mps 691 mmHg 92%
    01:00 +22°C° 0 mm 1 mps 691 mmHg 95%
    02:00 +21°C° 0 mm 1 mps 690 mmHg 94%
    03:00 +19°C° 0 mm 0 mps 690 mmHg 93%
    04:00 +19°C° 0 mm 0 mps 690 mmHg 93%
    05:00 +19°C° 0 mm 0 mps 691 mmHg 88%
    06:00 +19°C° 0 mm 0 mps 691 mmHg 83%
    07:00 +20°C° 0 mm 0 mps 691 mmHg 79%
    08:00 +25°C° 0 mm 1 mps 692 mmHg 65%
    09:00 +28°C° 0 mm 1 mps 693 mmHg 51%
    10:00 +32°C° 0 mm 1 mps 693 mmHg 38%
    11:00 +32°C° 0 mm 2 mps 693 mmHg 35%
    12:00 +34°C° 0 mm 2 mps 692 mmHg 33%
    13:00 +35°C° 0 mm 2 mps 692 mmHg 30%
    14:00 +35°C° 0 mm 2 mps 691 mmHg 33%
    15:00 +33°C° 0 mm 1 mps 691 mmHg 35%
    16:00 +33°C° 0 mm 1 mps 690 mmHg 38%
    17:00 +31°C° 0 mm 1 mps 691 mmHg 44%
    18:00 +28°C° 0 mm 1 mps 691 mmHg 49%
    19:00 +26°C° 0 mm 1 mps 691 mmHg 55%
    20:00 +25°C° 0 mm 1 mps 691 mmHg 57%
    21:00 +24°C° 0 mm 1 mps 691 mmHg 60%
    22:00 +22°C° 0 mm 0 mps 692 mmHg 62%
    23:00 +21°C° 0 mm 0 mps 692 mmHg 65%

    1 June, Monday

    Time Temperature Precipitation Wind Pressure Humidity
    00:00 +21°C° 0 mm 0 mps 692 mmHg 67%
    01:00 +20°C° 0 mm 0 mps 691 mmHg 70%
    02:00 +20°C° 0 mm 0 mps 691 mmHg 71%
    03:00 +19°C° 0 mm 0 mps 691 mmHg 72%
    04:00 +21°C° 0 mm 1 mps 690 mmHg 74%
    05:00 +21°C° 0 mm 1 mps 691 mmHg 72%
    06:00 +22°C° 0 mm 1 mps 691 mmHg 71%
    07:00 +22°C° 0 mm 1 mps 692 mmHg 70%
    08:00 +25°C° 0 mm 1 mps 692 mmHg 59%
    09:00 +29°C° 0 mm 2 mps 693 mmHg 48%
    10:00 +32°C° 0 mm 2 mps 693 mmHg 37%
    11:00 +34°C° 0 mm 2 mps 692 mmHg 35%
    12:00 +35°C° 0 mm 2 mps 692 mmHg 33%
    13:00 +36°C° 0 mm 3 mps 691 mmHg 31%
    14:00 +35°C° 0 mm 2 mps 691 mmHg 33%
    15:00 +35°C° 0 mm 2 mps 690 mmHg 35%
    16:00 +33°C° 0 mm 1 mps 690 mmHg 38%
    17:00 +31°C° 0 mm 1 mps 690 mmHg 42%
    18:00 +29°C° 0 mm 1 mps 690 mmHg 47%
    19:00 +26°C° 0 mm 1 mps 690 mmHg 51%
    20:00 +26°C° 0 mm 1 mps 691 mmHg 53%
    21:00 +25°C° 0 mm 1 mps 691 mmHg 54%
    22:00 +24°C° 0 mm 1 mps 691 mmHg 55%
    23:00 +24°C° 0 mm 1 mps 691 mmHg 57%
    Show more